Weather History for St. Joseph, MO

Change the Weather History Date:

Friday, October 7, 2011

  Actual Average Record
Temperature  
Mean Temperature 76 °F 58 °F  
Max Temperature 84 °F 71 °F 96 °F (1939)
Min Temperature 67 °F 46 °F 22 °F (2012)
Degree Days  
Heating Degree Days 0 8  
Month to date heating degree days 22 51  
Since 1 July heating degree days 75 131  
Cooling Degree Days 11 1  
Month to date cooling degree days 16 12  
Year to date cooling degree days 475 1211  
Growing Degree Days 25 (Base 50)    
Moisture  
Dew Point 56 °F    
Average Humidity 51    
Maximum Humidity 58    
Minimum Humidity 44    
Precipitation  
Precipitation 0.00 in 0.08 in 1.81 in (1977)
Month to date precipitation 0.00 0.62  
Year to date precipitation 13.83 30.34  
Snow  
Snow 0.00 in - - ()
Month to date snowfall 0.0  
Snow Depth 0.00 in    
Sea Level Pressure  
Sea Level Pressure 30.01 in    
Wind  
Wind Speed 16 mph (South)    
Max Wind Speed 26 mph    
Max Gust Speed 36 mph    
Visibility 10 miles    
Events      
T = Trace of Precipitation, MM = Missing Value Source: NWS Daily Summary

Daily Weather History Graph

Daily Weather History Graph

Search for Another Location

Airport:

Trip Planner

Search our weather history database for the weather conditions in past years. The results will help you decide how hot, cold, wet, or windy it might be!

Date:

Astronomy

Oct. 07, 2011 Rise Set
Actual Time 7:21 AM CDT 6:52 PM CDT
Civil Twilight 6:54 AM CDT 7:19 PM CDT
Nautical Twilight 6:23 AM CDT 7:51 PM CDT
Astronomical Twilight 5:51 AM CDT 8:22 PM CDT
Moon 4:35 PM CDT (10/7) 3:11 AM CDT (10/7)
Length of Visible Light 12h 25m
Length of Day
11h 31m
Waxing Gibbous, 83% of the Moon is Illuminated
Oct 7
Waxing Gibbous
Oct 11
Full
Oct 19
Last Quarter
Oct 26
New
Nov 2
First Quarter

Hourly Weather History & Observations

Time (CDT) Temp. Heat Index Dew Point Humidity Pressure Visibility Wind Dir Wind Speed Gust Speed Precip Events Conditions
1:53 AM 69.8 °F - 51.8 °F 53% 29.98 in 10.0 mi SSE 15.0 mph 21.9 mph N/A   Clear
2:53 AM 69.1 °F - 51.1 °F 53% 29.98 in 10.0 mi South 15.0 mph 21.9 mph N/A   Clear
3:53 AM 68.0 °F - 51.1 °F 55% 29.98 in 10.0 mi SSE 11.5 mph - N/A   Clear
4:53 AM 68.0 °F - 51.1 °F 55% 29.99 in 10.0 mi SSE 13.8 mph 20.7 mph N/A   Clear
5:53 AM 66.9 °F - 51.1 °F 57% 30.00 in 10.0 mi SSE 12.7 mph 19.6 mph N/A   Scattered Clouds
6:53 AM 68.0 °F - 51.1 °F 55% 30.01 in 10.0 mi South 16.1 mph 24.2 mph N/A   Partly Cloudy
7:53 AM 69.1 °F - 52.0 °F 54% 30.02 in 10.0 mi South 15.0 mph 23.0 mph N/A   Overcast
8:53 AM 71.1 °F - 53.1 °F 53% 30.03 in 10.0 mi South 17.3 mph 27.6 mph N/A   Overcast
9:53 AM 73.0 °F - 55.0 °F 53% 30.04 in 10.0 mi South 20.7 mph 31.1 mph N/A   Scattered Clouds
10:53 AM 77.0 °F - 57.0 °F 50% 30.04 in 10.0 mi South 23.0 mph 29.9 mph N/A   Clear
11:53 AM 79.0 °F - 59.0 °F 50% 30.04 in 10.0 mi South 20.7 mph 29.9 mph N/A   Clear
12:53 PM 81.0 °F 81.6 °F 60.1 °F 49% 30.02 in 10.0 mi South 20.7 mph 33.4 mph N/A   Partly Cloudy
1:53 PM 84.0 °F 84.0 °F 60.1 °F 44% 30.00 in 10.0 mi SSW 20.7 mph 35.7 mph N/A   Clear
2:53 PM 82.0 °F 82.7 °F 61.0 °F 49% 29.99 in 10.0 mi South 20.7 mph 26.5 mph N/A   Overcast
3:53 PM 82.4 °F 82.9 °F 60.8 °F 48% 30.01 in 10.0 mi South 18.4 mph 27.6 mph N/A   Mostly Cloudy
4:53 PM 81.0 °F 81.6 °F 60.1 °F 49% 29.98 in 10.0 mi South 19.6 mph 31.1 mph N/A   Overcast
5:53 PM 80.1 °F 80.9 °F 60.1 °F 50% 29.98 in 10.0 mi South 20.7 mph 26.5 mph N/A   Overcast
6:53 PM 79.0 °F - 59.0 °F 50% 29.99 in 10.0 mi SSE 13.8 mph 21.9 mph N/A   Overcast
7:53 PM 75.9 °F - 57.9 °F 54% 29.99 in 10.0 mi SSE 11.5 mph - N/A   Mostly Cloudy
8:53 PM 73.9 °F - 57.0 °F 55% 30.01 in 10.0 mi SSE 11.5 mph - N/A   Partly Cloudy
9:53 PM 73.0 °F - 55.9 °F 55% 30.01 in 10.0 mi SSE 13.8 mph - N/A   Clear
10:53 PM 73.0 °F - 54.0 °F 51% 30.04 in 10.0 mi South 11.5 mph - N/A   Clear
11:53 PM 71.1 °F - 53.1 °F 53% 30.03 in 10.0 mi SSE 10.4 mph - N/A   Clear